Location: Niedergestelen
(46.3129°N, 7.7822°E)
Time: 14:16:13
(UTC+00:00)

Envisat - Pass Details

Date: 01 December 2020
Orbit: 764 x 766 km, 98.1° (Epoch: 26 January)

Event Time Altitude Azimuth Distance (km) Brightness Sun altitude
Rises 16:34:42 0° 170° (S) 3,219 6.4 -8.6°
Reaches altitude 10° 16:37:00 10° 173° (S) 2,297 5.7 -9.0°
Maximum altitude 16:42:03 72° 258° (WSW) 807 3.3 -9.8°
Drops below altitude 10° 16:47:09 10° 343° (NNW) 2,315 5.5 -10.6°
Sets 16:49:29 0° 345° (NNW) 3,246 6.2 -11.0°
